Location: Noordwijk
(52.2400°N, 4.4500°E)
Time: 01:53:43
(UTC+00:00)

PCSat - Pass Details

Date: 09 December 2022
Orbit: 785 x 793 km, 67.0° (Epoch: 28 January)

Event Time Altitude Azimuth Distance (km) Brightness Sun altitude
Rises 20:28:24 0° 270° (W) 3,285 13.5 -44.0°
Reaches altitude 10° 20:31:19 10° 285° (WNW) 2,360 12.6 -44.5°
Enters shadow 20:31:51 12° 289° (WNW) 2,210 12.4 -44.5°
